Location: Broekland
(52.3610°N, 6.2005°E)
Time: 16:36:32
(UTC+00:00)

Cosmos 1536 - Pass Details

Date: 19 May 2025
Orbit: 494 x 518 km, 82.5° (Epoch: 16 June)

Event Time Altitude Azimuth Distance (km) Brightness Sun altitude
Rises 21:30:15 0° 349° (N) 2,645 7.8 -13.0°
Reaches altitude 10° 21:32:24 10° 351° (N) 1,749 6.6 -13.1°
Maximum altitude 21:36:14 82° 78° (ENE) 522 2.6 -13.4°
Enters shadow 21:38:30 23° 166° (SSE) 1,112 3.8 -13.6°
